[[{"header":{"parameterUnit":"m.s-1","parameterCategory":1,"la1":30.2991,"la2":30.254,"lo1":-89.0895,"lo2":-89.0444,"dy":0.0017,"dx":0.0017,"nx":28,"ny":28,"refTime":"2025-06-05T21:00:00:Z","depth":0,"parameterNumber":2,"parameterNumberName":"U-component_of_WINDS"},"data":[0,0,0,0,0,0,0,0,0,0,0,0,0,0,0,0,0,0,0,0,0,0,0,0,0,0,0,0,0,0,0,0,0,0,0,0,0,0,0,0,0,0,0,0,0,0,0,0,0,0,0,0,0,0,0,0,0,0,2.4762,2.4763,0,2.4858,2.486,2.4861,2.4917,2.4917,2.4918,2.4918,2.5021,2.5024,2.5026,0,0,0,0,0,0,0,0,0,0,0,0,0,2.4632,2.4634,2.4762,2.4763,2.4764,2.4858,2.486,2.4861,2.4917,2.4917,2.4918,2.4918,2.5021,2.5024,2.5027,0,0,0,0,0,0,0,0,0,0,0,0,0,2.4704,2.4634,2.4762,2.4804,2.4808,2.4858,2.486,2.4861,2.4917,2.4917,2.4918,2.4918,2.502,2.5023,2.5027,2.5044,0,0,2.5039,2.504,0,0,0,0,0,0,0,0,2.47,2.4709,2.4796,2.4801,2.4806,2.4876,2.4852,2.4923,2.4917,2.4876,2.4918,2.4918,2.4973,2.4981,2.4998,2.5049,2.5053,2.5039,2.5041,2.5043,2.5044,0,0,0,0,0,0,0,2.4695,2.4705,2.48,2.4797,2.4804,2.4819,2.483,2.4865,2.4922,2.488,2.4884,2.4894,2.4976,2.4994,2.5001,2.5055,2.5039,2.5042,2.5045,2.5046,2.5126,2.5126,0,0,0,0,0,0,2.4683,2.4701,2.4797,2.4803,2.4753,2.4821,2.4833,2.4853,2.4921,2.4932,2.4894,2.4896,2.4988,2.4997,2.5005,2.503,2.5043,2.5047,2.5049,2.5126,2.5126,2.5126,0,0,0,0,0,0,2.4679,2.4691,2.4793,2.4753,2.4767,2.4823,2.4845,2.4855,2.4874,2.4932,2.4943,2.4902,2.4988,2.5,2.5034,2.5035,2.5048,2.5052,2.5127,2.5126,2.5126,2.508,0,0,0,0,0,0,2.4675,2.4689,2.4695,2.4753,2.4769,2.4819,2.4845,2.4857,2.4879,2.4884,2.4943,2.4953,2.499,2.5028,2.5038,2.504,2.5055,2.5127,2.5127,2.5126,2.5082,2.5079,2.5076,0,0,0,0,0,2.4671,2.4679,2.4695,2.4706,2.4777,2.4819,2.4828,2.4869,2.4879,2.4886,2.4924,2.4951,2.5033,2.5031,2.5043,2.5046,2.5127,2.5127,2.5126,2.5084,2.5079,2.5076,0,0,0,0,0,0,2.4621,2.4687,2.4706,2.4732,2.4769,2.4828,2.4838,2.4863,2.4899,2.4902,2.4952,2.4965,2.4995,2.5024,2.5021,2.5067,2.5083,2.5085,2.5047,2.5043,2.504,2.5033,2.5058,0,0,0,0,0,2.4613,2.464,2.4697,2.4715,2.4732,2.4782,2.4802,2.483,2.4871,2.4887,2.4927,2.4967,2.5002,2.5024,2.506,2.5087,2.5101,2.5095,2.5092,2.5089,2.509,2.5108,2.5106,2.5125,2.5125,2.5125,0,0,2.4597,2.4637,2.4651,2.4706,2.4738,2.4766,2.4795,2.4823,2.4845,2.4892,2.4926,2.4957,2.5006,2.5037,2.5052,2.5062,2.5088,2.5088,2.5085,2.5089,2.5107,2.5106,2.5104,2.5125,2.5125,2.5125,0,0,2.4583,2.4615,2.4634,2.4665,2.4712,2.4745,2.475,2.4805,2.4827,2.4862,2.4898,2.4926,2.4985,2.5018,2.5043,2.5041,2.5068,2.5052,2.5035,2.5052,2.505,2.5049,2.505,2.5049,2.5053,2.5053,2.5052,0,2.4558,2.46,2.4641,2.4667,2.4691,2.4733,2.4754,2.4783,2.484,2.4857,2.4866,2.4941,2.4977,2.5017,2.5016,2.5035,2.5043,2.5045,2.5047,2.5046,2.5046,2.5047,2.5047,2.505,2.5051,2.5051,2.5051,0,2.4567,2.4596,2.4606,2.4658,2.4684,2.4707,2.4754,2.4775,2.48,2.4833,2.4869,2.4913,2.4959,2.497,2.4996,2.5014,2.5019,2.5037,2.5054,2.5041,2.5043,2.5044,2.5047,2.5048,2.5049,2.5049,0,0,2.4524,2.4599,2.4602,2.4627,2.4683,2.4707,2.4733,2.4776,2.4793,2.4832,2.4856,2.4905,2.4922,2.495,2.498,2.4995,2.4993,2.5012,2.5014,2.5007,2.5017,2.5003,2.5003,2.501,2.501,2.5011,2.5013,0,2.4518,2.4565,2.4604,2.4637,2.4665,2.4706,2.4729,2.4767,2.4798,2.4828,2.4864,2.4898,2.4917,2.4934,2.495,2.4989,2.4995,2.499,2.5035,2.5036,2.5022,2.5004,2.4989,2.4989,2.5014,2.5014,2.5014,0,2.4518,2.4553,2.4589,2.4643,2.4656,2.4676,2.4719,2.4746,2.479,2.4812,2.4843,2.4875,2.4906,2.492,2.4965,2.496,2.4981,2.5003,2.5004,2.5011,2.5025,2.501,2.499,2.499,2.5016,2.5015,2.5015,0,2.4484,2.4541,2.457,2.459,2.4653,2.4666,2.4693,2.4737,2.4761,2.4799,2.4816,2.4857,2.4881,2.4913,2.4956,2.4962,2.4997,2.5014,2.5018,2.5016,2.5024,2.5023,2.5007,2.5036,2.5036,2.5036,2.5036,0,2.4474,2.4495,2.4556,2.4573,2.4598,2.4643,2.4667,2.4698,2.4737,2.4764,2.4802,2.4826,2.488,2.4912,2.4945,2.4978,2.4988,2.5008,2.5017,2.5005,2.5003,2.502,2.5022,2.5036,2.5036,2.5036,2.5036,0,2.4441,2.4482,2.4517,2.4573,2.4588,2.4604,2.4653,2.4673,2.4707,2.4739,2.475,2.4803,2.4841,2.4887,2.4941,2.4964,2.4994,2.5007,2.4979,2.4984,2.4985,2.4985,2.4981,2.4983,2.5009,2.5009,2.5008,0,2.4432,2.4449,2.4507,2.4526,2.4552,2.4583,2.4607,2.4652,2.4676,2.4728,2.4742,2.4783,2.4819,2.4879,2.4924,2.4966,2.498,2.4976,2.4987,2.4975,2.4981,2.498,2.4983,2.4973,2.4973,2.4972,2.4972,0,2.4413,2.4433,2.4465,2.4504,2.4532,2.4566,2.4601,2.4615,2.4668,2.4693,2.4732,2.476,2.4815,2.4856,2.4903,2.4934,2.4962,2.4968,2.4971,2.496,2.4943,2.4953,2.4971,2.4968,2.4968,2.4969,2.4969,2.4969,2.4393,2.441,2.4453,2.4488,2.4519,2.4552,2.4573,2.4609,2.4642,2.4689,2.4714,2.4753,2.4799,2.4865,2.4894,2.4927,2.4937,2.4941,2.4942,2.4943,2.494,2.4937,2.4936,2.4936,2.4936,2.4936,2.4936,0,2.4376,2.4406,2.4437,2.4485,2.4513,2.4536,2.4577,2.4599,2.4633,2.4672,2.4705,2.4751,2.4791,2.4839,2.4883,2.49,2.4914,2.491,2.4909,2.4916,2.4928,2.4921,2.4897,2.4897,2.4897,2.4897,2.4897,2.4897,2.4371,2.4401,2.4426,2.4472,2.4503,2.454,2.4561,2.4592,2.4624,2.4672,2.4705,2.4735,2.4779,2.4826,2.4865,2.4878,2.4893,2.4885,2.4902,2.4912,2.4915,2.4918,2.4912,2.4887,2.4887,2.4887,2.4887,2.4887]},{"header":{"parameterUnit":"m.s-1","parameterCategory":1,"la1":30.2991,"la2":30.254,"lo1":-89.0895,"lo2":-89.0444,"dy":0.0017,"dx":0.0017,"nx":28,"ny":28,"refTime":"2025-06-05T21:00:00:Z","depth":0,"parameterNumber":3,"parameterNumberName":"V-component_of_WINDS"},"data":[0,0,0,0,0,0,0,0,0,0,0,0,0,0,0,0,0,0,0,0,0,0,0,0,0,0,0,0,0,0,0,0,0,0,0,0,0,0,0,0,0,0,0,0,0,0,0,0,0,0,0,0,0,0,0,0,0,0,2.179,2.1789,0,2.1732,2.1731,2.173,2.1673,2.1673,2.1672,2.1671,2.1611,2.161,2.1609,0,0,0,0,0,0,0,0,0,0,0,0,0,2.1849,2.1848,2.179,2.1789,2.1788,2.1732,2.1731,2.173,2.1673,2.1673,2.1672,2.1671,2.1611,2.161,2.1609,0,0,0,0,0,0,0,0,0,0,0,0,0,2.1811,2.1848,2.179,2.1753,2.1749,2.1732,2.1731,2.173,2.1674,2.1673,2.1671,2.167,2.1612,2.1611,2.1609,2.1623,0,0,2.1605,2.1605,0,0,0,0,0,0,0,0,2.1813,2.1808,2.1759,2.1756,2.1751,2.1709,2.173,2.1694,2.1674,2.1702,2.1671,2.167,2.1644,2.164,2.1632,2.1621,2.1618,2.1605,2.1604,2.1604,2.1603,0,0,0,0,0,0,0,2.1816,2.1811,2.1767,2.1759,2.1754,2.1739,2.1732,2.1723,2.168,2.17,2.1695,2.1689,2.1642,2.1633,2.163,2.1617,2.1605,2.1604,2.1603,2.1602,2.1611,2.1612,0,0,0,0,0,0,2.1824,2.1813,2.1769,2.1765,2.178,2.1739,2.1731,2.1723,2.168,2.1673,2.169,2.1687,2.1636,2.1632,2.1628,2.1639,2.1604,2.1602,2.1602,2.161,2.1612,2.1613,0,0,0,0,0,0,2.1826,2.1821,2.1771,2.1788,2.178,2.1739,2.1731,2.1723,2.1714,2.1673,2.1665,2.1689,2.1635,2.163,2.1624,2.1636,2.1602,2.1601,2.1609,2.1611,2.1612,2.1663,0,0,0,0,0,0,2.1828,2.1822,2.1827,2.1788,2.178,2.1769,2.1731,2.1723,2.1712,2.1707,2.167,2.1663,2.1634,2.1627,2.1623,2.1634,2.1599,2.1608,2.161,2.1612,2.166,2.1667,2.1672,0,0,0,0,0,2.183,2.1844,2.1828,2.1822,2.1786,2.177,2.1765,2.1731,2.1713,2.1718,2.1691,2.1664,2.1636,2.1627,2.1622,2.1633,2.1607,2.1609,2.1612,2.1658,2.1665,2.1672,0,0,0,0,0,0,2.1885,2.1838,2.1819,2.1822,2.18,2.176,2.1765,2.174,2.1723,2.1719,2.1678,2.167,2.1669,2.165,2.1641,2.1643,2.1618,2.1619,2.1654,2.1661,2.1667,2.167,2.1598,0,0,0,0,0,2.1898,2.1889,2.1849,2.1855,2.1845,2.1807,2.1799,2.1775,2.175,2.1741,2.1714,2.1691,2.1677,2.1668,2.1653,2.1658,2.1648,2.1663,2.1669,2.1674,2.1675,2.1673,2.1679,2.1621,2.1621,2.162,0,0,2.1923,2.1897,2.1894,2.1865,2.1845,2.1836,2.18,2.1792,2.1785,2.174,2.1732,2.1712,2.1684,2.1683,2.1681,2.1667,2.1689,2.1677,2.1681,2.1679,2.1676,2.1682,2.1687,2.1622,2.1622,2.1622,0,0,2.1964,2.1945,2.1946,2.1927,2.1898,2.1872,2.1873,2.1836,2.1821,2.1813,2.1778,2.1769,2.1746,2.1726,2.1713,2.1746,2.172,2.1743,2.1771,2.1771,2.1775,2.1779,2.1788,2.1792,2.1744,2.1745,2.1745,0,2.1999,2.1985,2.195,2.1944,2.1931,2.1891,2.1891,2.1874,2.1841,2.1833,2.1819,2.1787,2.1766,2.1758,2.1766,2.1758,2.1756,2.1746,2.1777,2.1781,2.1784,2.1792,2.1796,2.1747,2.1747,2.1747,2.1746,0,2.2028,2.2019,2.2024,2.1992,2.1981,2.1978,2.1941,2.1934,2.1911,2.1887,2.1878,2.1851,2.1828,2.1825,2.1803,2.1814,2.1806,2.1785,2.1759,2.1793,2.1799,2.1803,2.1751,2.175,2.1749,2.1749,0,0,2.2101,2.2051,2.2053,2.2037,2.2002,2.1993,2.1988,2.1966,2.1959,2.1938,2.1931,2.1912,2.1892,2.1878,2.1853,2.1853,2.1877,2.1831,2.183,2.1838,2.1884,2.1898,2.1903,2.186,2.1861,2.1861,2.1886,0,2.2134,2.2123,2.2091,2.2089,2.2078,2.2039,2.2035,2.2012,2.1989,2.1976,2.1951,2.1937,2.1913,2.1904,2.1902,2.1875,2.1885,2.1873,2.1851,2.1851,2.1857,2.1907,2.1922,2.1947,2.1889,2.1889,2.1889,0,2.2171,2.2152,2.2149,2.2112,2.2107,2.2103,2.2079,2.2068,2.2041,2.2024,2.2008,2.198,2.1971,2.1948,2.1934,2.1926,2.1916,2.1901,2.1901,2.1896,2.1871,2.19,2.1954,2.1957,2.1894,2.1894,2.1893,0,2.2221,2.2195,2.2189,2.2178,2.2136,2.2133,2.2116,2.2087,2.2076,2.2055,2.2046,2.2025,2.2013,2.1996,2.1963,2.195,2.1952,2.1927,2.1936,2.1937,2.1936,2.1936,2.1986,2.1934,2.1934,2.1934,2.1934,0,2.226,2.2259,2.2211,2.2207,2.2204,2.2167,2.2165,2.2144,2.2119,2.2109,2.2075,2.2066,2.2024,2.201,2.1984,2.1975,2.197,2.1955,2.1948,2.1957,2.1958,2.1948,2.1944,2.1935,2.1935,2.1934,2.1934,0,2.2315,2.2283,2.2273,2.2234,2.2224,2.2224,2.219,2.2184,2.2159,2.2147,2.2142,2.2103,2.2085,2.2051,2.2023,2.2006,2.2001,2.199,2.201,2.2005,2.2015,2.2014,2.2058,2.2061,2.201,2.201,2.2011,0,2.234,2.2338,2.2299,2.229,2.2274,2.226,2.2248,2.2212,2.22,2.2168,2.2165,2.2145,2.2126,2.2098,2.2067,2.2045,2.2031,2.2049,2.2028,2.2036,2.2028,2.2028,2.2026,2.2053,2.2053,2.2054,2.2054,0,2.2388,2.2372,2.2356,2.2334,2.232,2.2301,2.228,2.2274,2.2233,2.2221,2.2202,2.2188,2.2159,2.2138,2.2111,2.2092,2.2065,2.2062,2.2062,2.207,2.2081,2.2072,2.202,2.206,2.206,2.2059,2.2059,2.2059,2.2427,2.2423,2.2394,2.2376,2.2357,2.2338,2.233,2.2304,2.2288,2.2262,2.2241,2.2223,2.2194,2.2156,2.2138,2.2123,2.211,2.2112,2.2112,2.2112,2.2114,2.2085,2.2118,2.2118,2.2118,2.2117,2.2117,0,2.2471,2.245,2.2435,2.2406,2.2392,2.237,2.2345,2.2334,2.2319,2.2295,2.2277,2.2254,2.2233,2.22,2.2177,2.217,2.2157,2.2165,2.2164,2.2159,2.2128,2.2129,2.2176,2.2176,2.2176,2.2176,2.2176,2.2176,2.2491,2.2482,2.2463,2.2443,2.2423,2.2405,2.2393,2.2374,2.2354,2.2331,2.2313,2.2292,2.2264,2.2237,2.2216,2.2207,2.2199,2.221,2.2196,2.2167,2.2162,2.2157,2.2157,2.2209,2.2209,2.2228,2.2229,2.2229]}]]